Time,TemperatureF,DewpointF,PressureIn,WindDirection,WindDirectionDegrees,WindSpeedMPH,WindSpeedGustMPH,Humidity,HourlyPrecipIn,Conditions,Clouds,dailyrainin,SoftwareType,DateUTC
2013-06-12 00:01:00,56.4,52.0,29.15,SW,225,2.1,-999.0,85,0.00,,,0.00,Rainwise IP-100,2013-06-12 07:01:00,
2013-06-12 00:06:00,56.1,51.0,29.16,SW,225,0.0,-999.0,85,0.00,,,0.00,Rainwise IP-100,2013-06-12 07:06:00,
2013-06-12 00:11:00,55.9,52.0,29.16,SW,225,0.0,-999.0,86,0.00,,,0.00,Rainwise IP-100,2013-06-12 07:11:00,
2013-06-12 00:16:00,55.8,52.0,29.16,SW,225,0.0,-999.0,87,0.00,,,0.00,Rainwise IP-100,2013-06-12 07:16:00,
2013-06-12 00:18:00,55.6,52.0,29.16,SW,225,0.0,-999.0,87,0.00,,,0.00,Rainwise IP-100,2013-06-12 07:18:00,
2013-06-12 00:22:00,55.4,52.0,29.16,SW,225,0.0,-999.0,88,0.00,,,0.00,Rainwise IP-100,2013-06-12 07:22:00,
2013-06-12 00:26:00,55.2,52.0,29.16,SW,225,0.0,-999.0,88,0.00,,,0.00,Rainwise IP-100,2013-06-12 07:26:00,
2013-06-12 00:31:00,55.1,52.0,29.16,SW,225,0.0,-999.0,88,0.00,,,0.00,Rainwise IP-100,2013-06-12 07:31:00,
2013-06-12 00:36:00,55.1,52.0,29.16,SW,225,1.4,-999.0,88,0.00,,,0.00,Rainwise IP-100,2013-06-12 07:36:00,
2013-06-12 00:41:00,55.3,52.0,29.16,SW,225,0.0,-999.0,88,0.00,,,0.00,Rainwise IP-100,2013-06-12 07:41:00,
2013-06-12 00:46:00,55.3,51.0,29.16,SW,225,1.2,-999.0,87,0.00,,,0.00,Rainwise IP-100,2013-06-12 07:46:00,
2013-06-12 00:51:00,55.2,51.0,29.16,SW,225,0.0,-999.0,87,0.00,,,0.00,Rainwise IP-100,2013-06-12 07:51:00,
2013-06-12 00:56:00,54.8,51.0,29.17,SW,225,0.0,-999.0,87,0.00,,,0.00,Rainwise IP-100,2013-06-12 07:56:00,
2013-06-12 01:01:00,54.5,50.5,29.16,SW,225,0.0,-999.0,87,0.00,,,0.00,Rainwise IP-100,2013-06-12 08:01:00,
2013-06-12 01:06:00,54.4,51.0,29.17,SW,225,0.0,-999.0,88,0.00,,,0.00,Rainwise IP-100,2013-06-12 08:06:00,
2013-06-12 01:11:00,54.1,50.5,29.16,SW,225,0.0,-999.0,88,0.00,,,0.00,Rainwise IP-100,2013-06-12 08:11:00,
2013-06-12 01:16:00,53.7,50.0,29.16,SW,225,1.2,-999.0,88,0.00,,,0.00,Rainwise IP-100,2013-06-12 08:16:00,
2013-06-12 01:21:00,53.2,49.0,29.16,SW,225,0.0,-999.0,88,0.00,,,0.00,Rainwise IP-100,2013-06-12 08:21:00,
2013-06-12 01:26:00,52.9,49.0,29.16,SW,225,1.2,-999.0,88,0.00,,,0.00,Rainwise IP-100,2013-06-12 08:26:00,
2013-06-12 01:31:00,52.7,50.0,29.16,SW,225,0.0,-999.0,89,0.00,,,0.00,Rainwise IP-100,2013-06-12 08:31:00,
2013-06-12 01:36:00,52.5,50.0,29.16,SW,225,1.4,-999.0,89,0.00,,,0.00,Rainwise IP-100,2013-06-12 08:36:00,
2013-06-12 01:41:00,52.5,50.0,29.15,SW,225,1.2,-999.0,89,0.00,,,0.00,Rainwise IP-100,2013-06-12 08:41:00,
2013-06-12 01:46:00,52.6,50.0,29.16,SW,225,0.0,-999.0,89,0.00,,,0.00,Rainwise IP-100,2013-06-12 08:46:00,
2013-06-12 01:51:00,52.4,49.0,29.15,SW,225,0.0,-999.0,89,0.00,,,0.00,Rainwise IP-100,2013-06-12 08:51:00,
2013-06-12 01:56:00,52.0,49.0,29.16,SW,225,0.0,-999.0,89,0.00,,,0.00,Rainwise IP-100,2013-06-12 08:56:00,
2013-06-12 02:01:00,51.5,49.0,29.16,SW,225,0.0,-999.0,89,0.00,,,0.00,Rainwise IP-100,2013-06-12 09:01:00,
2013-06-12 02:06:00,51.1,48.0,29.16,SW,225,0.0,-999.0,89,0.00,,,0.00,Rainwise IP-100,2013-06-12 09:06:00,
2013-06-12 02:11:00,50.8,48.0,29.16,SW,225,0.0,-999.0,90,0.00,,,0.00,Rainwise IP-100,2013-06-12 09:11:00,
2013-06-12 02:16:00,50.4,47.5,29.16,SW,225,1.6,-999.0,90,0.00,,,0.00,Rainwise IP-100,2013-06-12 09:16:00,
2013-06-12 02:21:00,50.1,47.0,29.15,SW,225,1.2,-999.0,90,0.00,,,0.00,Rainwise IP-100,2013-06-12 09:21:00,
2013-06-12 02:26:00,50.1,47.5,29.15,SW,225,0.0,-999.0,91,0.00,,,0.00,Rainwise IP-100,2013-06-12 09:26:00,
2013-06-12 02:31:00,50.2,47.5,29.15,SW,225,0.0,-999.0,91,0.00,,,0.00,Rainwise IP-100,2013-06-12 09:31:00,
2013-06-12 02:36:00,49.9,47.5,29.16,SW,225,0.0,-999.0,91,0.00,,,0.00,Rainwise IP-100,2013-06-12 09:36:00,
2013-06-12 02:41:00,49.5,47.5,29.15,SW,225,0.0,-999.0,91,0.00,,,0.00,Rainwise IP-100,2013-06-12 09:41:00,
2013-06-12 02:46:00,49.5,47.5,29.16,SW,225,0.0,-999.0,92,0.00,,,0.00,Rainwise IP-100,2013-06-12 09:46:00,
2013-06-12 02:51:00,49.6,47.5,29.16,SW,225,0.0,-999.0,93,0.00,,,0.00,Rainwise IP-100,2013-06-12 09:51:00,
2013-06-12 02:56:00,49.4,47.5,29.16,SW,225,0.0,-999.0,94,0.00,,,0.00,Rainwise IP-100,2013-06-12 09:56:00,
2013-06-12 03:01:00,49.1,47.5,29.16,SW,225,0.0,-999.0,94,0.00,,,0.00,Rainwise IP-100,2013-06-12 10:01:00,
2013-06-12 03:06:00,48.8,47.5,29.16,SW,225,0.0,-999.0,94,0.00,,,0.00,Rainwise IP-100,2013-06-12 10:06:00,
2013-06-12 03:11:00,48.3,47.0,29.15,SW,225,1.2,-999.0,94,0.00,,,0.00,Rainwise IP-100,2013-06-12 10:11:00,
2013-06-12 03:16:00,48.0,47.0,29.16,SW,225,1.2,-999.0,93,0.00,,,0.00,Rainwise IP-100,2013-06-12 10:16:00,
2013-06-12 03:21:00,47.9,47.0,29.15,SW,225,0.0,-999.0,93,0.00,,,0.00,Rainwise IP-100,2013-06-12 10:21:00,
2013-06-12 03:26:00,47.7,46.0,29.16,SW,225,1.2,-999.0,93,0.00,,,0.00,Rainwise IP-100,2013-06-12 10:26:00,
2013-06-12 03:31:00,47.5,46.0,29.16,SW,225,0.0,-999.0,93,0.00,,,0.00,Rainwise IP-100,2013-06-12 10:31:00,
2013-06-12 03:36:00,47.3,46.0,29.16,SW,225,0.0,-999.0,93,0.00,,,0.00,Rainwise IP-100,2013-06-12 10:36:00,
2013-06-12 03:41:00,47.3,46.0,29.16,SW,225,1.4,-999.0,93,0.00,,,0.00,Rainwise IP-100,2013-06-12 10:41:00,
2013-06-12 03:46:00,47.1,45.0,29.16,SW,225,0.0,-999.0,93,0.00,,,0.00,Rainwise IP-100,2013-06-12 10:46:00,
2013-06-12 03:51:00,46.9,45.0,29.16,SW,225,0.0,-999.0,93,0.00,,,0.00,Rainwise IP-100,2013-06-12 10:51:00,
2013-06-12 03:56:00,46.7,45.0,29.17,SW,225,1.4,-999.0,93,0.00,,,0.00,Rainwise IP-100,2013-06-12 10:56:00,
2013-06-12 04:01:00,46.3,44.0,29.16,SW,225,0.0,-999.0,93,0.00,,,0.00,Rainwise IP-100,2013-06-12 11:01:00,
2013-06-12 04:06:00,46.1,44.0,29.17,SW,225,0.0,-999.0,93,0.00,,,0.00,Rainwise IP-100,2013-06-12 11:06:00,
2013-06-12 04:11:00,46.2,44.0,29.16,SW,225,1.4,-999.0,93,0.00,,,0.00,Rainwise IP-100,2013-06-12 11:11:00,
2013-06-12 04:16:00,46.1,44.0,29.16,SW,225,0.0,-999.0,93,0.00,,,0.00,Rainwise IP-100,2013-06-12 11:16:00,
2013-06-12 04:21:00,46.0,44.0,29.16,SW,225,0.0,-999.0,93,0.00,,,0.00,Rainwise IP-100,2013-06-12 11:21:00,
2013-06-12 04:26:00,46.1,44.0,29.17,SW,225,0.0,-999.0,92,0.00,,,0.00,Rainwise IP-100,2013-06-12 11:26:00,
2013-06-12 04:31:00,46.0,44.0,29.17,SW,225,0.0,-999.0,92,0.00,,,0.00,Rainwise IP-100,2013-06-12 11:31:00,
2013-06-12 04:37:00,45.7,43.0,29.16,SW,225,0.0,-999.0,91,0.00,,,0.00,Rainwise IP-100,2013-06-12 11:37:00,
2013-06-12 04:44:00,45.6,43.0,29.17,SW,225,0.0,-999.0,91,0.00,,,0.00,Rainwise IP-100,2013-06-12 11:44:00,
2013-06-12 04:49:00,45.5,43.0,29.16,SW,225,0.0,-999.0,91,0.00,,,0.00,Rainwise IP-100,2013-06-12 11:49:00,
2013-06-12 04:54:00,45.4,42.0,29.16,SW,225,0.0,-999.0,91,0.00,,,0.00,Rainwise IP-100,2013-06-12 11:54:00,
2013-06-12 04:59:00,45.1,42.0,29.16,SW,225,0.0,-999.0,91,0.00,,,0.00,Rainwise IP-100,2013-06-12 11:59:00,
2013-06-12 05:04:00,45.0,43.0,29.17,SW,225,0.0,-999.0,92,0.00,,,0.00,Rainwise IP-100,2013-06-12 12:04:00,
2013-06-12 05:09:00,45.0,43.0,29.17,SW,225,0.0,-999.0,92,0.00,,,0.00,Rainwise IP-100,2013-06-12 12:09:00,
2013-06-12 05:14:00,44.7,43.0,29.17,SW,225,0.0,-999.0,92,0.00,,,0.00,Rainwise IP-100,2013-06-12 12:14:00,
2013-06-12 05:19:00,44.9,43.0,29.17,SW,225,0.0,-999.0,93,0.00,,,0.00,Rainwise IP-100,2013-06-12 12:19:00,
2013-06-12 05:24:00,45.3,43.0,29.17,SW,225,0.0,-999.0,94,0.00,,,0.00,Rainwise IP-100,2013-06-12 12:24:00,
2013-06-12 05:29:00,45.1,44.0,29.17,SW,225,0.0,-999.0,95,0.00,,,0.00,Rainwise IP-100,2013-06-12 12:29:00,
2013-06-12 05:34:00,45.0,44.0,29.18,SW,225,0.0,-999.0,95,0.00,,,0.00,Rainwise IP-100,2013-06-12 12:34:00,
2013-06-12 05:39:00,44.8,44.0,29.18,SW,225,1.4,-999.0,95,0.00,,,0.00,Rainwise IP-100,2013-06-12 12:39:00,
2013-06-12 05:44:00,44.5,43.0,29.18,SW,225,0.0,-999.0,94,0.00,,,0.00,Rainwise IP-100,2013-06-12 12:44:00,
2013-06-12 05:49:00,44.6,43.0,29.17,SW,225,0.0,-999.0,93,0.00,,,0.00,Rainwise IP-100,2013-06-12 12:49:00,
2013-06-12 05:54:00,44.7,43.0,29.17,SW,225,0.0,-999.0,93,0.00,,,0.00,Rainwise IP-100,2013-06-12 12:54:00,
2013-06-12 05:59:00,44.6,43.0,29.18,SW,225,0.0,-999.0,92,0.00,,,0.00,Rainwise IP-100,2013-06-12 12:59:00,
2013-06-12 06:04:00,44.5,43.0,29.18,SW,225,0.0,-999.0,92,0.00,,,0.00,Rainwise IP-100,2013-06-12 13:04:00,
2013-06-12 06:09:00,44.2,42.0,29.18,SW,225,0.0,-999.0,92,0.00,,,0.00,Rainwise IP-100,2013-06-12 13:09:00,
2013-06-12 06:14:00,44.0,42.0,29.18,SW,225,0.0,-999.0,93,0.00,,,0.00,Rainwise IP-100,2013-06-12 13:14:00,
2013-06-12 06:19:00,44.2,42.0,29.18,SW,225,0.0,-999.0,93,0.00,,,0.00,Rainwise IP-100,2013-06-12 13:19:00,
2013-06-12 06:24:00,44.4,42.0,29.18,SW,225,0.0,-999.0,93,0.00,,,0.00,Rainwise IP-100,2013-06-12 13:24:00,
2013-06-12 06:29:00,44.7,43.0,29.18,SW,225,0.0,-999.0,93,0.00,,,0.00,Rainwise IP-100,2013-06-12 13:29:00,
2013-06-12 06:34:00,44.8,43.0,29.18,SW,225,0.0,-999.0,92,0.00,,,0.00,Rainwise IP-100,2013-06-12 13:34:00,
2013-06-12 06:39:00,45.2,43.0,29.18,SW,225,0.0,-999.0,92,0.00,,,0.00,Rainwise IP-100,2013-06-12 13:39:00,
2013-06-12 06:44:00,46.2,44.0,29.19,SW,225,0.0,-999.0,92,0.00,,,0.00,Rainwise IP-100,2013-06-12 13:44:00,
2013-06-12 06:49:00,47.3,45.0,29.18,SW,225,0.0,-999.0,91,0.00,,,0.00,Rainwise IP-100,2013-06-12 13:49:00,
2013-06-12 06:54:00,47.8,46.0,29.18,SW,225,0.0,-999.0,91,0.00,,,0.00,Rainwise IP-100,2013-06-12 13:54:00,
2013-06-12 06:59:00,48.0,46.0,29.19,SW,225,0.0,-999.0,92,0.00,,,0.00,Rainwise IP-100,2013-06-12 13:59:00,
2013-06-12 07:04:00,48.7,47.0,29.19,SW,225,0.0,-999.0,92,0.00,,,0.00,Rainwise IP-100,2013-06-12 14:04:00,
2013-06-12 07:09:00,49.8,47.5,29.19,ESE,112,2.3,-999.0,91,0.00,,,0.00,Rainwise IP-100,2013-06-12 14:09:00,
2013-06-12 07:14:00,50.7,47.5,29.19,ESE,112,0.0,-999.0,90,0.00,,,0.00,Rainwise IP-100,2013-06-12 14:14:00,
2013-06-12 07:19:00,51.3,47.5,29.19,ESE,112,0.0,-999.0,88,0.00,,,0.00,Rainwise IP-100,2013-06-12 14:19:00,
2013-06-12 07:24:00,52.0,48.0,29.20,ESE,112,0.0,-999.0,88,0.00,,,0.00,Rainwise IP-100,2013-06-12 14:24:00,
2013-06-12 07:29:00,52.9,50.0,29.20,ESE,112,1.2,-999.0,89,0.00,,,0.00,Rainwise IP-100,2013-06-12 14:29:00,
2013-06-12 07:34:00,54.0,50.0,29.20,ESE,112,0.0,-999.0,86,0.00,,,0.00,Rainwise IP-100,2013-06-12 14:34:00,
2013-06-12 07:39:00,55.1,50.5,29.20,ESE,112,1.2,-999.0,83,0.00,,,0.00,Rainwise IP-100,2013-06-12 14:39:00,
2013-06-12 07:44:00,56.2,50.0,29.20,ESE,112,0.0,-999.0,79,0.00,,,0.00,Rainwise IP-100,2013-06-12 14:44:00,
2013-06-12 07:49:00,56.9,49.0,29.20,ESE,112,0.0,-999.0,75,0.00,,,0.00,Rainwise IP-100,2013-06-12 14:49:00,
2013-06-12 07:54:00,57.6,49.0,29.20,ESE,112,2.1,-999.0,72,0.00,,,0.00,Rainwise IP-100,2013-06-12 14:54:00,
2013-06-12 07:59:00,58.3,48.0,29.20,ESE,112,1.4,-999.0,70,0.00,,,0.00,Rainwise IP-100,2013-06-12 14:59:00,
2013-06-12 08:04:00,58.7,49.0,29.20,ESE,112,0.0,-999.0,69,0.00,,,0.00,Rainwise IP-100,2013-06-12 15:04:00,
2013-06-12 08:09:00,59.5,48.0,29.20,SSE,157,0.0,-999.0,67,0.00,,,0.00,Rainwise IP-100,2013-06-12 15:09:00,
2013-06-12 08:14:00,60.4,49.0,29.20,SSE,157,0.0,-999.0,66,0.00,,,0.00,Rainwise IP-100,2013-06-12 15:14:00,
2013-06-12 08:19:00,61.1,49.0,29.20,East,90,3.0,-999.0,64,0.00,,,0.00,Rainwise IP-100,2013-06-12 15:19:00,
2013-06-12 08:24:00,61.0,49.0,29.20,East,90,1.4,-999.0,64,0.00,,,0.00,Rainwise IP-100,2013-06-12 15:24:00,
2013-06-12 08:29:00,61.3,49.0,29.20,ESE,112,1.4,-999.0,63,0.00,,,0.00,Rainwise IP-100,2013-06-12 15:29:00,
2013-06-12 08:34:00,62.2,49.0,29.20,SSE,157,1.9,-999.0,63,0.00,,,0.00,Rainwise IP-100,2013-06-12 15:34:00,
2013-06-12 08:39:00,62.8,50.0,29.20,East,90,2.1,-999.0,62,0.00,,,0.00,Rainwise IP-100,2013-06-12 15:39:00,
2013-06-12 08:44:00,63.4,49.0,29.20,SE,135,0.0,-999.0,60,0.00,,,0.00,Rainwise IP-100,2013-06-12 15:44:00,
2013-06-12 08:49:00,64.2,49.0,29.20,SE,135,1.6,-999.0,59,0.00,,,0.00,Rainwise IP-100,2013-06-12 15:49:00,
2013-06-12 08:54:00,64.6,49.0,29.20,ESE,112,1.4,-999.0,58,0.00,,,0.00,Rainwise IP-100,2013-06-12 15:54:00,
2013-06-12 08:59:00,65.1,49.0,29.20,SSE,157,2.6,-999.0,57,0.00,,,0.00,Rainwise IP-100,2013-06-12 15:59:00,
2013-06-12 09:04:00,66.2,50.0,29.20,ESE,112,0.0,-999.0,55,0.00,,,0.00,Rainwise IP-100,2013-06-12 16:04:00,
2013-06-12 09:09:00,66.7,49.0,29.20,SSE,157,2.3,-999.0,53,0.00,,,0.00,Rainwise IP-100,2013-06-12 16:09:00,
2013-06-12 09:14:00,67.5,49.0,29.20,ESE,112,0.0,-999.0,52,0.00,,,0.00,Rainwise IP-100,2013-06-12 16:14:00,
2013-06-12 09:19:00,68.6,49.0,29.20,SSE,157,2.1,-999.0,50,0.00,,,0.00,Rainwise IP-100,2013-06-12 16:19:00,
2013-06-12 09:25:00,69.5,49.0,29.20,SSE,157,3.7,-999.0,48,0.00,,,0.00,Rainwise IP-100,2013-06-12 16:25:00,
2013-06-12 09:30:00,70.2,48.0,29.20,SSE,157,2.1,-999.0,46,0.00,,,0.00,Rainwise IP-100,2013-06-12 16:30:00,
2013-06-12 09:35:00,71.0,48.0,29.19,SSE,157,1.9,-999.0,45,0.00,,,0.00,Rainwise IP-100,2013-06-12 16:35:00,
2013-06-12 09:40:00,71.4,48.0,29.20,ESE,112,1.6,-999.0,44,0.00,,,0.00,Rainwise IP-100,2013-06-12 16:40:00,
2013-06-12 09:45:00,71.9,49.0,29.20,SE,135,1.9,-999.0,44,0.00,,,0.00,Rainwise IP-100,2013-06-12 16:45:00,
2013-06-12 09:50:00,72.9,48.0,29.19,ESE,112,1.6,-999.0,42,0.00,,,0.00,Rainwise IP-100,2013-06-12 16:50:00,
2013-06-12 09:55:00,74.2,49.0,29.19,ESE,112,2.3,-999.0,41,0.00,,,0.00,Rainwise IP-100,2013-06-12 16:55:00,
2013-06-12 10:00:00,75.7,49.0,29.20,ENE,67,4.0,-999.0,39,0.00,,,0.00,Rainwise IP-100,2013-06-12 17:00:00,
2013-06-12 10:05:00,75.9,47.5,29.19,SE,135,1.4,-999.0,37,0.00,,,0.00,Rainwise IP-100,2013-06-12 17:05:00,
2013-06-12 10:10:00,76.1,47.0,29.19,SSE,157,2.3,-999.0,35,0.00,,,0.00,Rainwise IP-100,2013-06-12 17:10:00,
2013-06-12 10:15:00,76.9,46.0,29.19,East,90,2.1,-999.0,33,0.00,,,0.00,Rainwise IP-100,2013-06-12 17:15:00,
2013-06-12 10:20:00,76.8,45.0,29.19,SSE,157,1.9,-999.0,32,0.00,,,0.00,Rainwise IP-100,2013-06-12 17:20:00,
2013-06-12 10:25:00,77.2,45.0,29.19,SSE,157,2.6,-999.0,32,0.00,,,0.00,Rainwise IP-100,2013-06-12 17:25:00,
2013-06-12 10:30:00,78.2,45.0,29.19,SSE,157,3.5,-999.0,31,0.00,,,0.00,Rainwise IP-100,2013-06-12 17:30:00,
2013-06-12 10:35:00,78.6,46.0,29.19,SE,135,5.6,-999.0,31,0.00,,,0.00,Rainwise IP-100,2013-06-12 17:35:00,
2013-06-12 10:40:00,78.5,46.0,29.19,SSW,202,2.8,-999.0,31,0.00,,,0.00,Rainwise IP-100,2013-06-12 17:40:00,
2013-06-12 10:45:00,78.7,46.0,29.19,ESE,112,2.6,-999.0,31,0.00,,,0.00,Rainwise IP-100,2013-06-12 17:45:00,
2013-06-12 10:50:00,79.4,46.0,29.20,WNW,292,3.0,-999.0,31,0.00,,,0.00,Rainwise IP-100,2013-06-12 17:50:00,
2013-06-12 10:55:00,80.2,46.0,29.19,East,90,2.1,-999.0,30,0.00,,,0.00,Rainwise IP-100,2013-06-12 17:55:00,
2013-06-12 11:00:00,80.5,47.0,29.19,ESE,112,2.6,-999.0,30,0.00,,,0.00,Rainwise IP-100,2013-06-12 18:00:00,
2013-06-12 11:05:00,80.2,46.0,29.19,SE,135,3.7,-999.0,30,0.00,,,0.00,Rainwise IP-100,2013-06-12 18:05:00,
2013-06-12 11:10:00,80.1,46.0,29.19,SSW,202,7.0,-999.0,30,0.00,,,0.00,Rainwise IP-100,2013-06-12 18:10:00,
2013-06-12 11:15:00,80.6,45.0,29.19,SSW,202,1.2,-999.0,29,0.00,,,0.00,Rainwise IP-100,2013-06-12 18:15:00,
2013-06-12 11:20:00,81.1,46.0,29.18,SSE,157,1.9,-999.0,29,0.00,,,0.00,Rainwise IP-100,2013-06-12 18:20:00,
2013-06-12 11:25:00,80.5,44.0,29.19,ESE,112,4.0,-999.0,28,0.00,,,0.00,Rainwise IP-100,2013-06-12 18:25:00,
2013-06-12 11:30:00,80.0,45.0,29.19,SSE,157,3.0,-999.0,29,0.00,,,0.00,Rainwise IP-100,2013-06-12 18:30:00,
2013-06-12 11:35:00,80.7,45.0,29.19,SW,225,1.9,-999.0,28,0.00,,,0.00,Rainwise IP-100,2013-06-12 18:35:00,
2013-06-12 11:40:00,81.7,46.0,29.19,SSE,157,3.3,-999.0,28,0.00,,,0.00,Rainwise IP-100,2013-06-12 18:40:00,
2013-06-12 11:45:00,81.4,44.0,29.19,SSW,202,0.0,-999.0,27,0.00,,,0.00,Rainwise IP-100,2013-06-12 18:45:00,
2013-06-12 11:50:00,81.0,45.0,29.19,WSW,247,3.7,-999.0,28,0.00,,,0.00,Rainwise IP-100,2013-06-12 18:50:00,
2013-06-12 11:55:00,81.6,46.0,29.19,SSE,157,5.4,-999.0,28,0.00,,,0.00,Rainwise IP-100,2013-06-12 18:55:00,
2013-06-12 12:00:00,81.7,47.0,29.18,ESE,112,5.1,-999.0,29,0.00,,,0.00,Rainwise IP-100,2013-06-12 19:00:00,
2013-06-12 12:05:00,81.8,47.0,29.19,SSE,157,5.1,-999.0,29,0.00,,,0.00,Rainwise IP-100,2013-06-12 19:05:00,
2013-06-12 12:10:00,82.1,47.0,29.18,WSW,247,3.7,-999.0,29,0.00,,,0.00,Rainwise IP-100,2013-06-12 19:10:00,
2013-06-12 12:15:00,82.0,46.0,29.19,WSW,247,7.5,-999.0,28,0.00,,,0.00,Rainwise IP-100,2013-06-12 19:15:00,
2013-06-12 12:20:00,82.1,46.0,29.18,SSW,202,3.3,-999.0,28,0.00,,,0.00,Rainwise IP-100,2013-06-12 19:20:00,
2013-06-12 12:25:00,82.1,46.0,29.18,SSE,157,3.7,-999.0,28,0.00,,,0.00,Rainwise IP-100,2013-06-12 19:25:00,
2013-06-12 12:30:00,82.4,45.0,29.18,SSE,157,4.2,-999.0,27,0.00,,,0.00,Rainwise IP-100,2013-06-12 19:30:00,
2013-06-12 12:35:00,81.9,45.0,29.18,ESE,112,5.4,-999.0,27,0.00,,,0.00,Rainwise IP-100,2013-06-12 19:35:00,
2013-06-12 12:40:00,81.6,46.0,29.18,SSE,157,1.6,-999.0,28,0.00,,,0.00,Rainwise IP-100,2013-06-12 19:40:00,
2013-06-12 12:45:00,81.6,46.0,29.18,SSE,157,8.2,-999.0,28,0.00,,,0.00,Rainwise IP-100,2013-06-12 19:45:00,
2013-06-12 12:50:00,81.4,45.0,29.18,South,180,9.8,-999.0,28,0.00,,,0.00,Rainwise IP-100,2013-06-12 19:50:00,
2013-06-12 12:55:00,81.7,46.0,29.18,SE,135,5.6,-999.0,28,0.00,,,0.00,Rainwise IP-100,2013-06-12 19:55:00,
2013-06-12 13:00:00,82.1,46.0,29.18,South,180,2.8,-999.0,28,0.00,,,0.00,Rainwise IP-100,2013-06-12 20:00:00,
2013-06-12 13:05:00,82.7,46.0,29.18,South,180,2.6,-999.0,27,0.00,,,0.00,Rainwise IP-100,2013-06-12 20:05:00,
2013-06-12 13:10:00,83.3,46.0,29.18,SSW,202,4.4,-999.0,27,0.00,,,0.00,Rainwise IP-100,2013-06-12 20:10:00,
2013-06-12 13:15:00,83.3,45.0,29.17,SSW,202,5.4,-999.0,26,0.00,,,0.00,Rainwise IP-100,2013-06-12 20:15:00,
2013-06-12 13:20:00,82.9,44.0,29.18,SSE,157,1.6,-999.0,25,0.00,,,0.00,Rainwise IP-100,2013-06-12 20:20:00,
2013-06-12 13:25:00,82.4,44.0,29.17,SE,135,10.7,-999.0,26,0.00,,,0.00,Rainwise IP-100,2013-06-12 20:25:00,
2013-06-12 13:30:00,82.4,43.0,29.17,SSE,157,3.7,-999.0,25,0.00,,,0.00,Rainwise IP-100,2013-06-12 20:30:00,
2013-06-12 13:35:00,82.7,43.0,29.17,South,180,7.5,-999.0,25,0.00,,,0.00,Rainwise IP-100,2013-06-12 20:35:00,
2013-06-12 13:40:00,82.4,43.0,29.17,SSE,157,12.8,-999.0,25,0.00,,,0.00,Rainwise IP-100,2013-06-12 20:40:00,
2013-06-12 13:45:00,82.4,43.0,29.17,SSW,202,6.1,-999.0,25,0.00,,,0.00,Rainwise IP-100,2013-06-12 20:45:00,
2013-06-12 13:50:00,83.1,42.0,29.17,SSW,202,7.9,-999.0,24,0.00,,,0.00,Rainwise IP-100,2013-06-12 20:50:00,
2013-06-12 13:55:00,83.4,43.0,29.17,SSE,157,5.6,-999.0,24,0.00,,,0.00,Rainwise IP-100,2013-06-12 20:55:00,
2013-06-12 14:00:00,83.1,41.0,29.17,SSE,157,1.6,-999.0,23,0.00,,,0.00,Rainwise IP-100,2013-06-12 21:00:00,
2013-06-12 14:05:00,83.2,43.0,29.16,SSE,157,5.6,-999.0,24,0.00,,,0.00,Rainwise IP-100,2013-06-12 21:05:00,
2013-06-12 14:10:00,84.2,44.0,29.16,SW,225,7.9,-999.0,24,0.00,,,0.00,Rainwise IP-100,2013-06-12 21:10:00,
2013-06-12 14:15:00,84.6,43.0,29.16,West,270,6.8,-999.0,23,0.00,,,0.00,Rainwise IP-100,2013-06-12 21:15:00,
2013-06-12 14:20:00,84.5,43.0,29.17,SSW,202,14.0,-999.0,23,0.00,,,0.00,Rainwise IP-100,2013-06-12 21:20:00,
2013-06-12 14:25:00,84.5,41.0,29.16,WSW,247,4.4,-999.0,22,0.00,,,0.00,Rainwise IP-100,2013-06-12 21:25:00,
2013-06-12 14:30:00,84.5,41.0,29.16,SSW,202,6.8,-999.0,22,0.00,,,0.00,Rainwise IP-100,2013-06-12 21:30:00,
2013-06-12 14:35:00,84.6,41.0,29.15,SSW,202,6.8,-999.0,22,0.00,,,0.00,Rainwise IP-100,2013-06-12 21:35:00,
2013-06-12 14:40:00,84.5,41.0,29.16,SSW,202,11.9,-999.0,22,0.00,,,0.00,Rainwise IP-100,2013-06-12 21:40:00,
2013-06-12 14:45:00,84.7,40.0,29.16,SSW,202,12.8,-999.0,21,0.00,,,0.00,Rainwise IP-100,2013-06-12 21:45:00,
2013-06-12 14:50:00,85.0,39.0,29.15,SSW,202,13.5,-999.0,20,0.00,,,0.00,Rainwise IP-100,2013-06-12 21:50:00,
2013-06-12 14:55:00,85.2,39.0,29.15,SSW,202,9.1,-999.0,20,0.00,,,0.00,Rainwise IP-100,2013-06-12 21:55:00,
2013-06-12 15:00:00,85.4,40.0,29.15,WSW,247,6.5,-999.0,20,0.00,,,0.00,Rainwise IP-100,2013-06-12 22:00:00,
2013-06-12 15:05:00,85.6,38.0,29.15,WSW,247,13.8,-999.0,19,0.00,,,0.00,Rainwise IP-100,2013-06-12 22:05:00,
2013-06-12 15:10:00,85.7,39.0,29.15,SW,225,8.4,-999.0,19,0.00,,,0.00,Rainwise IP-100,2013-06-12 22:10:00,
2013-06-12 15:15:00,85.7,39.0,29.15,WSW,247,8.4,-999.0,19,0.00,,,0.00,Rainwise IP-100,2013-06-12 22:15:00,
2013-06-12 15:20:00,85.8,39.0,29.15,NW,315,0.0,-999.0,19,0.00,,,0.00,Rainwise IP-100,2013-06-12 22:20:00,
2013-06-12 15:25:00,86.2,39.0,29.15,WSW,247,2.8,-999.0,19,0.00,,,0.00,Rainwise IP-100,2013-06-12 22:25:00,
2013-06-12 15:30:00,86.6,39.0,29.15,SSW,202,2.6,-999.0,19,0.00,,,0.00,Rainwise IP-100,2013-06-12 22:30:00,
2013-06-12 15:35:00,86.5,39.0,29.15,SSW,202,2.1,-999.0,19,0.00,,,0.00,Rainwise IP-100,2013-06-12 22:35:00,
2013-06-12 15:40:00,86.2,39.0,29.15,WSW,247,10.3,-999.0,19,0.00,,,0.00,Rainwise IP-100,2013-06-12 22:40:00,
2013-06-12 15:45:00,86.1,39.0,29.15,SW,225,4.0,-999.0,19,0.00,,,0.00,Rainwise IP-100,2013-06-12 22:45:00,
2013-06-12 15:50:00,86.1,39.0,29.15,WSW,247,4.7,-999.0,19,0.00,,,0.00,Rainwise IP-100,2013-06-12 22:50:00,
2013-06-12 15:55:00,86.2,39.0,29.15,NW,315,5.1,-999.0,19,0.00,,,0.00,Rainwise IP-100,2013-06-12 22:55:00,
2013-06-12 16:00:00,86.2,39.0,29.15,SSW,202,4.7,-999.0,19,0.00,,,0.00,Rainwise IP-100,2013-06-12 23:00:00,
2013-06-12 16:05:00,86.3,39.0,29.15,WSW,247,5.6,-999.0,19,0.00,,,0.00,Rainwise IP-100,2013-06-12 23:05:00,
2013-06-12 16:10:00,86.3,39.0,29.15,WSW,247,5.1,-999.0,19,0.00,,,0.00,Rainwise IP-100,2013-06-12 23:10:00,
2013-06-12 16:15:00,86.3,38.0,29.15,SSW,202,4.2,-999.0,18,0.00,,,0.00,Rainwise IP-100,2013-06-12 23:15:00,
2013-06-12 16:20:00,86.3,38.0,29.14,West,270,2.1,-999.0,18,0.00,,,0.00,Rainwise IP-100,2013-06-12 23:20:00,
2013-06-12 16:25:00,86.3,39.0,29.15,SSW,202,4.4,-999.0,19,0.00,,,0.00,Rainwise IP-100,2013-06-12 23:25:00,
2013-06-12 16:30:00,86.1,39.0,29.15,SW,225,5.6,-999.0,19,0.00,,,0.00,Rainwise IP-100,2013-06-12 23:30:00,
2013-06-12 16:35:00,85.8,40.0,29.15,SSW,202,5.4,-999.0,20,0.00,,,0.00,Rainwise IP-100,2013-06-12 23:35:00,
2013-06-12 16:40:00,85.6,40.0,29.15,WSW,247,4.2,-999.0,20,0.00,,,0.00,Rainwise IP-100,2013-06-12 23:40:00,
2013-06-12 16:45:00,85.7,40.0,29.15,WSW,247,7.5,-999.0,20,0.00,,,0.00,Rainwise IP-100,2013-06-12 23:45:00,
2013-06-12 16:50:00,85.5,40.0,29.15,WNW,292,4.9,-999.0,20,0.00,,,0.00,Rainwise IP-100,2013-06-12 23:50:00,
2013-06-12 16:55:00,85.2,39.0,29.15,WSW,247,7.5,-999.0,20,0.00,,,0.00,Rainwise IP-100,2013-06-12 23:55:00,
2013-06-12 17:00:00,85.0,39.0,29.15,SW,225,6.1,-999.0,20,0.00,,,0.00,Rainwise IP-100,2013-06-13 00:00:00,
2013-06-12 17:05:00,84.9,39.0,29.14,WSW,247,7.7,-999.0,20,0.00,,,0.00,Rainwise IP-100,2013-06-13 00:05:00,
2013-06-12 17:10:00,84.8,40.0,29.15,West,270,2.1,-999.0,21,0.00,,,0.00,Rainwise IP-100,2013-06-13 00:10:00,
2013-06-12 17:15:00,84.9,40.0,29.14,WSW,247,2.1,-999.0,21,0.00,,,0.00,Rainwise IP-100,2013-06-13 00:15:00,
2013-06-12 17:20:00,85.1,42.0,29.15,SW,225,7.7,-999.0,22,0.00,,,0.00,Rainwise IP-100,2013-06-13 00:20:00,
2013-06-12 17:25:00,84.8,40.0,29.15,SSW,202,6.1,-999.0,21,0.00,,,0.00,Rainwise IP-100,2013-06-13 00:25:00,
2013-06-12 17:30:00,84.2,40.0,29.14,SSW,202,5.6,-999.0,21,0.00,,,0.00,Rainwise IP-100,2013-06-13 00:30:00,
2013-06-12 17:35:00,84.0,41.0,29.15,West,270,4.9,-999.0,22,0.00,,,0.00,Rainwise IP-100,2013-06-13 00:35:00,
2013-06-12 17:40:00,84.0,41.0,29.15,WNW,292,6.8,-999.0,22,0.00,,,0.00,Rainwise IP-100,2013-06-13 00:40:00,
2013-06-12 17:45:00,83.7,41.0,29.14,WSW,247,3.7,-999.0,22,0.00,,,0.00,Rainwise IP-100,2013-06-13 00:45:00,
2013-06-12 17:50:00,83.4,41.0,29.14,WSW,247,2.6,-999.0,22,0.00,,,0.00,Rainwise IP-100,2013-06-13 00:50:00,
2013-06-12 17:55:00,83.3,41.0,29.14,SSW,202,8.6,-999.0,23,0.00,,,0.00,Rainwise IP-100,2013-06-13 00:55:00,
2013-06-12 18:00:00,83.1,41.0,29.15,WNW,292,3.0,-999.0,23,0.00,,,0.00,Rainwise IP-100,2013-06-13 01:00:00,
2013-06-12 18:05:00,83.1,41.0,29.14,WNW,292,0.0,-999.0,23,0.00,,,0.00,Rainwise IP-100,2013-06-13 01:05:00,
2013-06-12 18:10:00,83.1,42.0,29.14,WSW,247,1.4,-999.0,24,0.00,,,0.00,Rainwise IP-100,2013-06-13 01:10:00,
2013-06-12 18:15:00,83.2,43.0,29.14,WNW,292,2.3,-999.0,24,0.00,,,0.00,Rainwise IP-100,2013-06-13 01:15:00,
2013-06-12 18:20:00,83.3,41.0,29.14,WSW,247,3.0,-999.0,23,0.00,,,0.00,Rainwise IP-100,2013-06-13 01:20:00,
2013-06-12 18:25:00,83.1,41.0,29.14,WSW,247,1.6,-999.0,23,0.00,,,0.00,Rainwise IP-100,2013-06-13 01:25:00,
2013-06-12 18:30:00,82.9,41.0,29.15,WNW,292,2.8,-999.0,23,0.00,,,0.00,Rainwise IP-100,2013-06-13 01:30:00,
2013-06-12 18:35:00,83.0,41.0,29.15,WSW,247,2.3,-999.0,23,0.00,,,0.00,Rainwise IP-100,2013-06-13 01:35:00,
2013-06-12 18:40:00,82.8,42.0,29.15,WSW,247,4.0,-999.0,24,0.00,,,0.00,Rainwise IP-100,2013-06-13 01:40:00,
2013-06-12 18:45:00,82.3,42.0,29.15,WNW,292,2.8,-999.0,24,0.00,,,0.00,Rainwise IP-100,2013-06-13 01:45:00,
2013-06-12 18:50:00,81.7,41.0,29.15,West,270,3.3,-999.0,24,0.00,,,0.00,Rainwise IP-100,2013-06-13 01:50:00,
2013-06-12 18:55:00,81.0,41.0,29.15,West,270,3.0,-999.0,24,0.00,,,0.00,Rainwise IP-100,2013-06-13 01:55:00,
2013-06-12 19:00:00,80.6,41.0,29.15,WSW,247,3.3,-999.0,25,0.00,,,0.00,Rainwise IP-100,2013-06-13 02:00:00,
2013-06-12 19:05:00,80.2,41.0,29.15,WSW,247,6.5,-999.0,25,0.00,,,0.00,Rainwise IP-100,2013-06-13 02:05:00,
2013-06-12 19:10:00,79.3,41.0,29.16,West,270,2.3,-999.0,26,0.00,,,0.00,Rainwise IP-100,2013-06-13 02:10:00,
2013-06-12 19:15:00,78.1,40.0,29.15,West,270,6.5,-999.0,26,0.00,,,0.00,Rainwise IP-100,2013-06-13 02:15:00,
2013-06-12 19:20:00,77.0,40.0,29.16,WSW,247,5.1,-999.0,27,0.00,,,0.00,Rainwise IP-100,2013-06-13 02:20:00,
2013-06-12 19:25:00,75.9,40.0,29.16,WSW,247,6.3,-999.0,28,0.00,,,0.00,Rainwise IP-100,2013-06-13 02:25:00,
2013-06-12 19:30:00,75.0,41.0,29.16,WSW,247,3.3,-999.0,29,0.00,,,0.00,Rainwise IP-100,2013-06-13 02:30:00,
2013-06-12 19:35:00,74.3,40.0,29.16,SW,225,3.7,-999.0,29,0.00,,,0.00,Rainwise IP-100,2013-06-13 02:35:00,
2013-06-12 19:40:00,73.6,40.0,29.16,SW,225,2.3,-999.0,30,0.00,,,0.00,Rainwise IP-100,2013-06-13 02:40:00,
2013-06-12 19:45:00,73.0,40.0,29.17,SW,225,4.4,-999.0,31,0.00,,,0.00,Rainwise IP-100,2013-06-13 02:45:00,
2013-06-12 19:50:00,72.5,40.0,29.17,SW,225,3.3,-999.0,31,0.00,,,0.00,Rainwise IP-100,2013-06-13 02:50:00,
2013-06-12 19:55:00,72.0,39.0,29.17,WSW,247,2.6,-999.0,31,0.00,,,0.00,Rainwise IP-100,2013-06-13 02:55:00,
2013-06-12 20:00:00,71.4,40.0,29.17,WSW,247,1.6,-999.0,32,0.00,,,0.00,Rainwise IP-100,2013-06-13 03:00:00,
2013-06-12 20:05:00,70.7,40.0,29.17,WSW,247,2.1,-999.0,33,0.00,,,0.00,Rainwise IP-100,2013-06-13 03:05:00,
2013-06-12 20:10:00,69.9,40.0,29.17,WSW,247,2.3,-999.0,34,0.00,,,0.00,Rainwise IP-100,2013-06-13 03:10:00,
2013-06-12 20:15:00,68.7,40.0,29.17,WSW,247,2.3,-999.0,35,0.00,,,0.00,Rainwise IP-100,2013-06-13 03:15:00,
2013-06-12 20:20:00,67.3,40.0,29.18,WSW,247,0.0,-999.0,37,0.00,,,0.00,Rainwise IP-100,2013-06-13 03:20:00,
2013-06-12 20:25:00,66.4,40.0,29.18,WSW,247,0.0,-999.0,39,0.00,,,0.00,Rainwise IP-100,2013-06-13 03:25:00,
2013-06-12 20:30:00,65.9,41.0,29.17,WSW,247,0.0,-999.0,40,0.00,,,0.00,Rainwise IP-100,2013-06-13 03:30:00,
2013-06-12 20:35:00,65.2,40.0,29.18,WSW,247,0.0,-999.0,41,0.00,,,0.00,Rainwise IP-100,2013-06-13 03:35:00,
2013-06-12 20:40:00,64.6,40.0,29.18,WSW,247,0.0,-999.0,41,0.00,,,0.00,Rainwise IP-100,2013-06-13 03:40:00,
2013-06-12 20:45:00,63.9,40.0,29.18,WSW,247,1.6,-999.0,42,0.00,,,0.00,Rainwise IP-100,2013-06-13 03:45:00,
2013-06-12 20:50:00,63.0,41.0,29.18,WSW,247,0.0,-999.0,44,0.00,,,0.00,Rainwise IP-100,2013-06-13 03:50:00,
2013-06-12 20:55:00,62.3,41.0,29.19,WSW,247,0.0,-999.0,46,0.00,,,0.00,Rainwise IP-100,2013-06-13 03:55:00,
2013-06-12 21:00:00,61.7,40.0,29.19,WSW,247,1.6,-999.0,46,0.00,,,0.00,Rainwise IP-100,2013-06-13 04:00:00,
2013-06-12 21:01:00,61.7,40.0,29.19,WSW,247,1.2,-999.0,46,0.00,,,0.00,Rainwise IP-100,2013-06-13 04:01:00,
2013-06-12 21:06:00,61.1,40.0,29.19,WSW,247,0.0,-999.0,47,0.00,,,0.00,Rainwise IP-100,2013-06-13 04:06:00,
2013-06-12 21:11:00,60.7,40.0,29.20,WSW,247,0.0,-999.0,47,0.00,,,0.00,Rainwise IP-100,2013-06-13 04:11:00,
2013-06-12 21:16:00,60.4,40.0,29.20,WSW,247,1.2,-999.0,48,0.00,,,0.00,Rainwise IP-100,2013-06-13 04:16:00,
2013-06-12 21:21:00,60.1,40.0,29.20,WSW,247,1.9,-999.0,48,0.00,,,0.00,Rainwise IP-100,2013-06-13 04:21:00,
2013-06-12 21:26:00,60.0,40.0,29.20,WSW,247,0.0,-999.0,48,0.00,,,0.00,Rainwise IP-100,2013-06-13 04:26:00,
2013-06-12 21:31:00,59.7,40.0,29.20,SSW,202,0.0,-999.0,49,0.00,,,0.00,Rainwise IP-100,2013-06-13 04:31:00,
2013-06-12 21:36:00,59.6,40.0,29.20,WSW,247,3.0,-999.0,49,0.00,,,0.00,Rainwise IP-100,2013-06-13 04:36:00,
2013-06-12 21:41:00,59.5,40.0,29.20,WSW,247,0.0,-999.0,49,0.00,,,0.00,Rainwise IP-100,2013-06-13 04:41:00,
2013-06-12 21:46:00,59.2,40.0,29.21,WSW,247,2.3,-999.0,50,0.00,,,0.00,Rainwise IP-100,2013-06-13 04:46:00,
2013-06-12 21:51:00,59.0,40.0,29.21,WSW,247,0.0,-999.0,50,0.00,,,0.00,Rainwise IP-100,2013-06-13 04:51:00,
2013-06-12 21:56:00,58.6,40.0,29.20,WSW,247,0.0,-999.0,50,0.00,,,0.00,Rainwise IP-100,2013-06-13 04:56:00,
2013-06-12 22:01:00,58.0,40.0,29.21,WSW,247,0.0,-999.0,52,0.00,,,0.00,Rainwise IP-100,2013-06-13 05:01:00,
2013-06-12 22:06:00,57.4,41.0,29.21,WSW,247,0.0,-999.0,54,0.00,,,0.00,Rainwise IP-100,2013-06-13 05:06:00,
2013-06-12 22:11:00,57.0,40.0,29.21,WSW,247,0.0,-999.0,54,0.00,,,0.00,Rainwise IP-100,2013-06-13 05:11:00,
2013-06-12 22:16:00,56.5,40.0,29.21,WSW,247,0.0,-999.0,54,0.00,,,0.00,Rainwise IP-100,2013-06-13 05:16:00,
2013-06-12 22:21:00,56.0,39.0,29.21,WSW,247,1.9,-999.0,54,0.00,,,0.00,Rainwise IP-100,2013-06-13 05:21:00,
2013-06-12 22:26:00,55.4,39.0,29.20,WSW,247,0.0,-999.0,55,0.00,,,0.00,Rainwise IP-100,2013-06-13 05:26:00,
2013-06-12 22:31:00,54.8,40.0,29.21,WSW,247,0.0,-999.0,57,0.00,,,0.00,Rainwise IP-100,2013-06-13 05:31:00,
2013-06-12 22:36:00,54.6,40.0,29.21,WSW,247,2.3,-999.0,58,0.00,,,0.00,Rainwise IP-100,2013-06-13 05:36:00,
2013-06-12 22:41:00,55.1,40.0,29.21,WSW,247,0.0,-999.0,57,0.00,,,0.00,Rainwise IP-100,2013-06-13 05:41:00,
2013-06-12 22:46:00,55.1,40.0,29.21,SSE,157,0.0,-999.0,56,0.00,,,0.00,Rainwise IP-100,2013-06-13 05:46:00,
2013-06-12 22:51:00,54.4,40.0,29.21,SW,225,1.9,-999.0,57,0.00,,,0.00,Rainwise IP-100,2013-06-13 05:51:00,
2013-06-12 22:56:00,53.8,40.0,29.21,SW,225,0.0,-999.0,59,0.00,,,0.00,Rainwise IP-100,2013-06-13 05:56:00,
2013-06-12 23:01:00,53.6,40.0,29.20,SW,225,0.0,-999.0,60,0.00,,,0.00,Rainwise IP-100,2013-06-13 06:01:00,
2013-06-12 23:06:00,53.5,40.0,29.21,SW,225,0.0,-999.0,60,0.00,,,0.00,Rainwise IP-100,2013-06-13 06:06:00,
2013-06-12 23:11:00,53.1,39.0,29.20,SW,225,0.0,-999.0,60,0.00,,,0.00,Rainwise IP-100,2013-06-13 06:11:00,
2013-06-12 23:16:00,52.7,39.0,29.21,SW,225,1.2,-999.0,60,0.00,,,0.00,Rainwise IP-100,2013-06-13 06:16:00,
2013-06-12 23:21:00,52.5,39.0,29.20,SW,225,0.0,-999.0,61,0.00,,,0.00,Rainwise IP-100,2013-06-13 06:21:00,
2013-06-12 23:26:00,52.3,39.0,29.21,SW,225,2.6,-999.0,62,0.00,,,0.00,Rainwise IP-100,2013-06-13 06:26:00,
2013-06-12 23:31:00,52.5,40.0,29.21,SW,225,0.0,-999.0,62,0.00,,,0.00,Rainwise IP-100,2013-06-13 06:31:00,
2013-06-12 23:36:00,53.1,39.0,29.21,SW,225,1.6,-999.0,61,0.00,,,0.00,Rainwise IP-100,2013-06-13 06:36:00,
2013-06-12 23:41:00,52.6,39.0,29.21,SW,225,0.0,-999.0,60,0.00,,,0.00,Rainwise IP-100,2013-06-13 06:41:00,
2013-06-12 23:46:00,51.6,39.0,29.22,SW,225,0.0,-999.0,61,0.00,,,0.00,Rainwise IP-100,2013-06-13 06:46:00,
2013-06-12 23:51:00,51.1,39.0,29.22,WSW,247,3.0,-999.0,62,0.00,,,0.00,Rainwise IP-100,2013-06-13 06:51:00,
2013-06-12 23:56:00,50.7,38.0,29.22,WSW,247,0.0,-999.0,63,0.00,,,0.00,Rainwise IP-100,2013-06-13 06:56:00,